Regional Weather Roundup
Issued by NWS

Home | Current Version | Previous Version | Graphics & Text | Print | Product List | Glossary On
Versions: 1 2 3 4 5 6 7 8 9 10 11 12 13 14 15 16 17 18 19 20 21 22 23 24 25 26 27 28 29 30 31 32 33 34 35 36 37 38 39 40 41 42 43 44 45 46 47 48 49 50
000
ASUS43 KIND 171059
RWRIN

WEATHER ROUNDUP FOR INDIANA
NATIONAL WEATHER SERVICE INDIANAPOLIS IN
700 AM EDT THU APR 17 2014

NOTE: "FAIR" INDICATES FEW OR NO CLOUDS BELOW 12,000 FEET WITH NO
SIGNIFICANT WEATHER AND/OR OBSTRUCTIONS TO VISIBILITY.

* - STATION DOES NOT REPORT WEATHER SUCH AS PRECIPITATION OR FOG.

+ - STATION NOT QUALITY CONTROLLED BY THE NATIONAL WEATHER SERVICE.
    USE DATA WITH CAUTION...ESPECIALLY DEWPOINT AND RELATIVE
    HUMIDITY OBSERVATIONS.

INZ001>003-010>013-019-020-171200-
NORTHWEST INDIANA

CITY           SKY/WX    TMP DP  RH WIND       PRES   REMARKS
GARY /AIRPORT/ MOCLDY    43  25  49 SE14      30.16S
LA PORTE +     PTCLDY    37  24  61 SE7       30.21S
MONTICELLO +   PTCLDY    36  26  66 SE5       30.20F
VALPARAISO     PTCLDY    37  24  59 SE8       30.19S

$$

LMZ046-743>745-171200-
SOUTHERN LAKE MICHIGAN

STATION/POSITION TIME  TEMP WIND        PRES
                       AIR  DIR/SP/G
                 (UTC) (F)  (DEG/KT/KT) (MB)
MICHIGAN CITY    1000   41  120/ 13/ 17   N/A

$$

INZ004-005-014>016-021>024-171200-
NORTH CENTRAL INDIANA

CITY           SKY/WX    TMP DP  RH WIND       PRES   REMARKS
ELKHART        PTCLDY    36  25  64 SE8       30.23
GOSHEN         PTCLDY    36  25  64 SE10      30.24S
SOUTH BEND     PTCLDY    38  24  57 SE10G21   30.22

$$

INZ006>009-017-018-025>027-171200-
NORTHEAST INDIANA

CITY           SKY/WX    TMP DP  RH WIND       PRES   REMARKS
ANGOLA *+      CLEAR     34  25  69 SE8       30.27R WCI  27
FORT WAYNE     PTCLDY    30  23  75 E6        30.27R WCI  24

$$

INZ028-029-035-036-043>045-051>053-171200-
WEST CENTRAL INDIANA

CITY           SKY/WX    TMP DP  RH WIND       PRES   REMARKS
GREENCASTLE +  CLEAR     36  27  69 SE7       30.23R
LAFAYETTE      CLEAR     38  25  59 SE7       30.21R
TERRE HAUTE    PTCLDY    38  26  62 S6        30.22R

$$

INZ030>032-037>040-046>048-054>057-064-065-171200-
CENTRAL INDIANA

CITY           SKY/WX    TMP DP  RH WIND       PRES   REMARKS
INDIANAPOLIS   PTCLDY    34  24  67 CALM      30.24R
-EAGLE CREEK   CLEAR     36  24  62 CALM      30.24R
KOKOMO *+      CLEAR     36  25  64 S12       30.24R
MT COMFORT *+  CLEAR     34  27  75 SE6       30.25S WCI  29
SHELBYVILLE    CLEAR     39  26  59 SE9       30.25R

$$

INZ033-034-041-042-049-050-058-059-171200-
EAST CENTRAL INDIANA

CITY           SKY/WX    TMP DP  RH WIND       PRES   REMARKS
MUNCIE         CLEAR     40  22  48 S9        30.25R

$$

INZ060-061-067>069-081>083-085>088-171200-
SOUTHWEST INDIANA

CITY           SKY/WX    TMP DP  RH WIND       PRES   REMARKS
EVANSVILLE     CLEAR     42  31  64 CALM      30.25R
HUNTINGBURG *+ CLEAR     43  27  52 S6        30.27R

$$

INZ062-063-066-070>080-084-089>092-171200-
SOUTH CENTRAL AND SOUTHEAST INDIANA

CITY           SKY/WX    TMP DP  RH WIND       PRES   REMARKS
BLOOMINGTON    CLEAR     40  24  53 SE10      30.24R

$$




USA.gov is the U.S. government's official web portal to all federal, state and local government web resources and services.